owner,sensor,date,latitude,longitude,air_pressure(mBar),qcFlag 
TABS,ioos:station:wmo:42043:1,2019-09-01T05:00:00Z,28.9818,-94.9186,1015.14,11111222 
TABS,ioos:station:wmo:42043:1,2019-09-01T06:00:00Z,28.9818,-94.9186,1014.9,11111222 
TABS,ioos:station:wmo:42043:1,2019-09-01T07:00:00Z,28.9818,-94.9186,1014.98,11111222 
TABS,ioos:station:wmo:42043:1,2019-09-01T08:00:00Z,28.9818,-94.9186,1014.7,11111222 
TABS,ioos:station:wmo:42043:1,2019-09-01T09:00:00Z,28.9818,-94.9186,1014.72,11111222 
TABS,ioos:station:wmo:42043:1,2019-09-01T20:00:00Z,28.9818,-94.9186,1014.53,11111222 
TABS,ioos:station:wmo:42043:1,2019-09-01T21:00:00Z,28.9818,-94.9186,1013.67,11111222 
TABS,ioos:station:wmo:42043:1,2019-09-01T21:30:00Z,28.9818,-94.9186,1013.62,11111222 
TABS,ioos:station:wmo:42043:1,2019-09-02T00:00:00Z,28.9818,-94.9186,1013.42,11111222 
TABS,ioos:station:wmo:42043:1,2019-09-02T15:00:00Z,28.9818,-94.9186,1015.49,11111222 
TABS,ioos:station:wmo:42043:1,2019-09-02T16:00:00Z,28.9818,-94.9186,1015.37,11111222 
TABS,ioos:station:wmo:42043:1,2019-09-02T17:00:00Z,28.9818,-94.9186,1015.54,11111222 
TABS,ioos:station:wmo:42043:1,2019-09-02T18:00:00Z,28.9818,-94.9186,1015.0,11111222 
TABS,ioos:station:wmo:42043:1,2019-09-02T19:00:00Z,28.9818,-94.9186,1014.35,11111222 
TABS,ioos:station:wmo:42043:1,2019-09-02T20:00:00Z,28.9818,-94.9186,1013.79,11111222 
TABS,ioos:station:wmo:42043:1,2019-09-02T21:00:00Z,28.9818,-94.9186,1013.27,11111222 
TABS,ioos:station:wmo:42043:1,2019-09-02T22:00:00Z,28.9818,-94.9186,1013.18,11111222 
TABS,ioos:station:wmo:42043:1,2019-09-02T23:00:00Z,28.9818,-94.9186,1012.81,11111222 
TABS,ioos:station:wmo:42043:1,2019-09-02T23:30:00Z,28.9818,-94.9186,1012.71,11111222 
TABS,ioos:station:wmo:42043:1,2019-09-03T04:00:00Z,28.9818,-94.9186,1013.29,11111222 
TABS,ioos:station:wmo:42043:1,2019-09-03T05:00:00Z,28.9818,-94.9186,1013.08,11111222 
TABS,ioos:station:wmo:42043:1,2019-09-03T06:00:00Z,28.9818,-94.9186,1012.36,11111222 
TABS,ioos:station:wmo:42043:1,2019-09-03T07:00:00Z,28.9818,-94.9186,1011.91,11111222 
TABS,ioos:station:wmo:42043:1,2019-09-03T08:00:00Z,28.9818,-94.9186,1011.35,11111222 
TABS,ioos:station:wmo:42043:1,2019-09-03T09:00:00Z,28.9818,-94.9186,1011.67,11111222 
TABS,ioos:station:wmo:42043:1,2019-09-03T10:00:00Z,28.9818,-94.9186,1011.72,11111222 
TABS,ioos:station:wmo:42043:1,2019-09-03T11:00:00Z,28.9818,-94.9186,1012.28,11111222 
TABS,ioos:station:wmo:42043:1,2019-09-03T12:00:00Z,28.9818,-94.9186,1012.6,11111222 
TABS,ioos:station:wmo:42043:1,2019-09-03T13:00:00Z,28.9818,-94.9186,1013.0,11111222 
TABS,ioos:station:wmo:42043:1,2019-09-03T14:00:00Z,28.9818,-94.9186,1013.12,11111222 
TABS,ioos:station:wmo:42043:1,2019-09-03T15:00:00Z,28.9818,-94.9186,1013.15,11111222 
TABS,ioos:station:wmo:42043:1,2019-09-03T16:00:00Z,28.9818,-94.9186,1013.61,11111222 
TABS,ioos:station:wmo:42043:1,2019-09-03T17:00:00Z,28.9818,-94.9186,1013.3,11111222 
TABS,ioos:station:wmo:42043:1,2019-09-03T18:00:00Z,28.9818,-94.9186,1012.5,11111222 
TABS,ioos:station:wmo:42043:1,2019-09-03T19:00:00Z,28.9818,-94.9186,1012.21,11111222 
TABS,ioos:station:wmo:42043:1,2019-09-03T20:00:00Z,28.9818,-94.9186,1011.59,11111222 
TABS,ioos:station:wmo:42043:1,2019-09-03T20:30:00Z,28.9818,-94.9186,1011.63,11111222 
TABS,ioos:station:wmo:42043:1,2019-09-03T21:30:00Z,28.9818,-94.9186,1011.53,11111222 
TABS,ioos:station:wmo:42043:1,2019-09-03T23:00:00Z,28.9818,-94.9186,1011.66,11111222 
TABS,ioos:station:wmo:42043:1,2019-09-03T23:30:00Z,28.9818,-94.9186,1011.63,11111222 
TABS,ioos:station:wmo:42043:1,2019-09-04T04:00:00Z,28.9818,-94.9186,1012.7,11111222 
TABS,ioos:station:wmo:42043:1,2019-09-04T05:00:00Z,28.9818,-94.9186,1012.7,11111222 
TABS,ioos:station:wmo:42043:1,2019-09-04T06:00:00Z,28.9818,-94.9186,1012.76,11111222 
TABS,ioos:station:wmo:42043:1,2019-09-04T07:00:00Z,28.9818,-94.9186,1012.46,11111222 
TABS,ioos:station:wmo:42043:1,2019-09-04T08:00:00Z,28.9818,-94.9186,1012.22,11111222 
TABS,ioos:station:wmo:42043:1,2019-09-04T09:00:00Z,28.9818,-94.9186,1012.33,11111222 
TABS,ioos:station:wmo:42043:1,2019-09-04T10:00:00Z,28.9818,-94.9186,1012.69,11111222 
TABS,ioos:station:wmo:42043:1,2019-09-04T11:00:00Z,28.9818,-94.9186,1013.28,11111222 
TABS,ioos:station:wmo:42043:1,2019-09-04T12:00:00Z,28.9818,-94.9186,1013.81,11111222 
TABS,ioos:station:wmo:42043:1,2019-09-04T13:00:00Z,28.9818,-94.9186,1014.38,11111222 
TABS,ioos:station:wmo:42043:1,2019-09-04T14:00:00Z,28.9818,-94.9186,1014.65,11111222 
TABS,ioos:station:wmo:42043:1,2019-09-04T15:00:00Z,28.9818,-94.9186,1015.24,11111222 
TABS,ioos:station:wmo:42043:1,2019-09-04T16:00:00Z,28.9818,-94.9186,1015.62,11111222 
TABS,ioos:station:wmo:42043:1,2019-09-04T17:00:00Z,28.9818,-94.9186,1015.46,11111222 
TABS,ioos:station:wmo:42043:1,2019-09-04T18:00:00Z,28.9818,-94.9186,1015.15,11111222 
TABS,ioos:station:wmo:42043:1,2019-09-04T19:00:00Z,28.9818,-94.9186,1014.94,11111222 
TABS,ioos:station:wmo:42043:1,2019-09-04T20:00:00Z,28.9818,-94.9186,1014.21,11111222 
TABS,ioos:station:wmo:42043:1,2019-09-04T21:00:00Z,28.9818,-94.9186,1014.05,11111222 
TABS,ioos:station:wmo:42043:1,2019-09-04T22:00:00Z,28.9818,-94.9186,1014.11,11111222 
TABS,ioos:station:wmo:42043:1,2019-09-04T23:00:00Z,28.9818,-94.9186,1014.51,11111222 
TABS,ioos:station:wmo:42043:1,2019-09-04T23:30:00Z,28.9818,-94.9186,1014.92,11111222 
TABS,ioos:station:wmo:42043:1,2019-09-05T04:00:00Z,28.9818,-94.9186,1015.96,11111222 
TABS,ioos:station:wmo:42043:1,2019-09-05T05:00:00Z,28.9818,-94.9186,1015.71,11111222 
TABS,ioos:station:wmo:42043:1,2019-09-05T06:00:00Z,28.9818,-94.9186,1015.66,11111222 
TABS,ioos:station:wmo:42043:1,2019-09-05T07:00:00Z,28.9818,-94.9186,1015.89,11111222 
TABS,ioos:station:wmo:42043:1,2019-09-05T08:00:00Z,28.9818,-94.9186,1015.78,11111222 
TABS,ioos:station:wmo:42043:1,2019-09-05T09:00:00Z,28.9818,-94.9186,1015.67,11111222 
TABS,ioos:station:wmo:42043:1,2019-09-05T10:00:00Z,28.9818,-94.9186,1016.37,11111222 
TABS,ioos:station:wmo:42043:1,2019-09-05T11:00:00Z,28.9818,-94.9186,1016.8,11111222 
TABS,ioos:station:wmo:42043:1,2019-09-05T12:00:00Z,28.9818,-94.9186,1017.29,11111222 
TABS,ioos:station:wmo:42043:1,2019-09-05T13:00:00Z,28.9818,-94.9186,1018.12,11111222 
TABS,ioos:station:wmo:42043:1,2019-09-05T14:00:00Z,28.9818,-94.9186,1018.44,11111222 
TABS,ioos:station:wmo:42043:1,2019-09-05T15:00:00Z,28.9818,-94.9186,1018.78,11111222 
TABS,ioos:station:wmo:42043:1,2019-09-05T16:00:00Z,28.9818,-94.9186,1019.02,11111222 
TABS,ioos:station:wmo:42043:1,2019-09-05T17:00:00Z,28.9818,-94.9186,1018.93,11111222 
TABS,ioos:station:wmo:42043:1,2019-09-05T18:00:00Z,28.9818,-94.9186,1018.85,11111222 
TABS,ioos:station:wmo:42043:1,2019-09-05T19:00:00Z,28.9818,-94.9186,1018.7,11111222 
TABS,ioos:station:wmo:42043:1,2019-09-05T20:00:00Z,28.9818,-94.9186,1017.82,11111222 
TABS,ioos:station:wmo:42043:1,2019-09-05T21:00:00Z,28.9818,-94.9186,1016.9,11111222 
TABS,ioos:station:wmo:42043:1,2019-09-05T22:00:00Z,28.9818,-94.9186,1016.11,11111222 
TABS,ioos:station:wmo:42043:1,2019-09-05T23:00:00Z,28.9818,-94.9186,1016.01,11111222 
TABS,ioos:station:wmo:42043:1,2019-09-05T23:30:00Z,28.9818,-94.9186,1016.1,11111222 
TABS,ioos:station:wmo:42043:1,2019-09-06T04:00:00Z,28.9818,-94.9186,1016.73,11111222 
TABS,ioos:station:wmo:42043:1,2019-09-06T06:30:00Z,28.9818,-94.9186,1016.53,11111222 
TABS,ioos:station:wmo:42043:1,2019-09-06T07:00:00Z,28.9818,-94.9186,1016.3,11111222 
TABS,ioos:station:wmo:42043:1,2019-09-06T08:00:00Z,28.9818,-94.9186,1016.06,11111222 
TABS,ioos:station:wmo:42043:1,2019-09-06T09:00:00Z,28.9818,-94.9186,1016.02,11111222 
TABS,ioos:station:wmo:42043:1,2019-09-06T10:00:00Z,28.9818,-94.9186,1016.35,11111222 
TABS,ioos:station:wmo:42043:1,2019-09-06T11:00:00Z,28.9818,-94.9186,1016.61,11111222 
TABS,ioos:station:wmo:42043:1,2019-09-06T12:00:00Z,28.9818,-94.9186,1017.05,11111222 
TABS,ioos:station:wmo:42043:1,2019-09-06T13:00:00Z,28.9818,-94.9186,1017.63,11111222 
TABS,ioos:station:wmo:42043:1,2019-09-06T14:00:00Z,28.9818,-94.9186,1017.95,11111222 
TABS,ioos:station:wmo:42043:1,2019-09-06T15:00:00Z,28.9818,-94.9186,1018.77,11111222 
TABS,ioos:station:wmo:42043:1,2019-09-06T16:00:00Z,28.9818,-94.9186,1018.4,11111222 
TABS,ioos:station:wmo:42043:1,2019-09-06T17:00:00Z,28.9818,-94.9186,1018.38,11111222 
TABS,ioos:station:wmo:42043:1,2019-09-06T18:00:00Z,28.9818,-94.9186,1017.99,11111222 
TABS,ioos:station:wmo:42043:1,2019-09-06T19:00:00Z,28.9818,-94.9186,1017.47,11111222 
TABS,ioos:station:wmo:42043:1,2019-09-06T20:00:00Z,28.9818,-94.9186,1016.55,11111222 
TABS,ioos:station:wmo:42043:1,2019-09-06T21:00:00Z,28.9818,-94.9186,1015.85,11111222 
TABS,ioos:station:wmo:42043:1,2019-09-06T22:00:00Z,28.9818,-94.9186,1015.54,11111222 
TABS,ioos:station:wmo:42043:1,2019-09-06T23:00:00Z,28.9818,-94.9186,1015.5,11111222 
TABS,ioos:station:wmo:42043:1,2019-09-06T23:30:00Z,28.9818,-94.9186,1015.39,11111222 
TABS,ioos:station:wmo:42043:1,2019-09-07T04:00:00Z,28.9818,-94.9186,1016.32,11111222 
TABS,ioos:station:wmo:42043:1,2019-09-07T05:00:00Z,28.9818,-94.9186,1016.28,11111222 
TABS,ioos:station:wmo:42043:1,2019-09-07T06:00:00Z,28.9818,-94.9186,1016.19,11111222 
TABS,ioos:station:wmo:42043:1,2019-09-07T07:00:00Z,28.9818,-94.9186,1016.16,11111222 
TABS,ioos:station:wmo:42043:1,2019-09-07T08:00:00Z,28.9818,-94.9186,1015.85,11111222 
TABS,ioos:station:wmo:42043:1,2019-09-07T09:00:00Z,28.9818,-94.9186,1015.56,11111222 
TABS,ioos:station:wmo:42043:1,2019-09-07T10:00:00Z,28.9818,-94.9186,1015.79,11111222 
TABS,ioos:station:wmo:42043:1,2019-09-07T11:00:00Z,28.9818,-94.9186,1016.18,11111222 
TABS,ioos:station:wmo:42043:1,2019-09-07T12:00:00Z,28.9818,-94.9186,1016.78,11111222 
TABS,ioos:station:wmo:42043:1,2019-09-07T13:00:00Z,28.9818,-94.9186,1017.13,11111222 
TABS,ioos:station:wmo:42043:1,2019-09-07T14:00:00Z,28.9818,-94.9186,1017.61,11111222 
TABS,ioos:station:wmo:42043:1,2019-09-07T15:00:00Z,28.9818,-94.9186,1017.76,11111222 
TABS,ioos:station:wmo:42043:1,2019-09-07T16:00:00Z,28.9818,-94.9186,1017.56,11111222 
TABS,ioos:station:wmo:42043:1,2019-09-07T17:00:00Z,28.9818,-94.9186,1017.2,11111222 
TABS,ioos:station:wmo:42043:1,2019-09-07T18:00:00Z,28.9818,-94.9186,1016.68,11111222 
TABS,ioos:station:wmo:42043:1,2019-09-07T19:00:00Z,28.9818,-94.9186,1016.08,11111222 
TABS,ioos:station:wmo:42043:1,2019-09-07T20:00:00Z,28.9818,-94.9186,1015.48,11111222 
TABS,ioos:station:wmo:42043:1,2019-09-07T21:00:00Z,28.9818,-94.9186,1014.83,11111222 
TABS,ioos:station:wmo:42043:1,2019-09-07T22:00:00Z,28.9818,-94.9186,1014.51,11111222 
TABS,ioos:station:wmo:42043:1,2019-09-07T23:00:00Z,28.9818,-94.9186,1014.29,11111222 
TABS,ioos:station:wmo:42043:1,2019-09-07T23:30:00Z,28.9818,-94.9186,1014.19,11111222 
TABS,ioos:station:wmo:42043:1,2019-09-08T04:00:00Z,28.9818,-94.9186,1015.26,11111222 
TABS,ioos:station:wmo:42043:1,2019-09-08T05:00:00Z,28.9818,-94.9186,1015.25,11111222 
TABS,ioos:station:wmo:42043:1,2019-09-08T06:00:00Z,28.9818,-94.9186,1015.2,11111222 
TABS,ioos:station:wmo:42043:1,2019-09-08T07:00:00Z,28.9818,-94.9186,1015.0,11111222 
TABS,ioos:station:wmo:42043:1,2019-09-08T08:00:00Z,28.9818,-94.9186,1014.66,11111222 
TABS,ioos:station:wmo:42043:1,2019-09-08T09:00:00Z,28.9818,-94.9186,1014.61,11111222 
TABS,ioos:station:wmo:42043:1,2019-09-08T10:00:00Z,28.9818,-94.9186,1014.92,11111222 
TABS,ioos:station:wmo:42043:1,2019-09-08T11:00:00Z,28.9818,-94.9186,1015.37,11111222 
TABS,ioos:station:wmo:42043:1,2019-09-08T12:00:00Z,28.9818,-94.9186,1015.81,11111222 
TABS,ioos:station:wmo:42043:1,2019-09-08T13:00:00Z,28.9818,-94.9186,1016.0,11111222 
TABS,ioos:station:wmo:42043:1,2019-09-08T14:00:00Z,28.9818,-94.9186,1016.34,11111222 
TABS,ioos:station:wmo:42043:1,2019-09-08T15:00:00Z,28.9818,-94.9186,1016.63,11111222 
TABS,ioos:station:wmo:42043:1,2019-09-08T16:00:00Z,28.9818,-94.9186,1016.73,11111222 
TABS,ioos:station:wmo:42043:1,2019-09-08T17:00:00Z,28.9818,-94.9186,1016.7,11111222 
TABS,ioos:station:wmo:42043:1,2019-09-08T18:00:00Z,28.9818,-94.9186,1016.1,11111222 
TABS,ioos:station:wmo:42043:1,2019-09-08T19:00:00Z,28.9818,-94.9186,1015.76,11111222 
TABS,ioos:station:wmo:42043:1,2019-09-08T20:00:00Z,28.9818,-94.9186,1015.2,11111222 
TABS,ioos:station:wmo:42043:1,2019-09-08T21:00:00Z,28.9818,-94.9186,1014.72,11111222 
TABS,ioos:station:wmo:42043:1,2019-09-08T22:00:00Z,28.9818,-94.9186,1014.36,11111222 
TABS,ioos:station:wmo:42043:1,2019-09-08T23:00:00Z,28.9818,-94.9186,1014.31,11111222 
TABS,ioos:station:wmo:42043:1,2019-09-09T17:30:00Z,28.9818,-94.9186,1016.91,11111222 
TABS,ioos:station:wmo:42043:1,2019-09-10T12:00:00Z,28.9818,-94.9186,1016.38,11111222 
TABS,ioos:station:wmo:42043:1,2019-09-10T13:00:00Z,28.9818,-94.9186,1017.17,11111222 
TABS,ioos:station:wmo:42043:1,2019-09-10T14:00:00Z,28.9818,-94.9186,1017.85,11111222 
TABS,ioos:station:wmo:42043:1,2019-09-10T15:00:00Z,28.9818,-94.9186,1018.36,11111222 
TABS,ioos:station:wmo:42043:1,2019-09-10T16:00:00Z,28.9818,-94.9186,1018.55,11111222 
TABS,ioos:station:wmo:42043:1,2019-09-10T17:00:00Z,28.9818,-94.9186,1018.77,11111222 
TABS,ioos:station:wmo:42043:1,2019-09-10T18:00:00Z,28.9818,-94.9186,1018.73,11111222 
TABS,ioos:station:wmo:42043:1,2019-09-10T19:00:00Z,28.9818,-94.9186,1017.83,11111222 
TABS,ioos:station:wmo:42043:1,2019-09-11T12:00:00Z,28.9818,-94.9186,1019.16,11111222 
TABS,ioos:station:wmo:42043:1,2019-09-11T13:00:00Z,28.9818,-94.9186,1019.44,11111222 
TABS,ioos:station:wmo:42043:1,2019-09-11T14:00:00Z,28.9818,-94.9186,1019.73,11111222 
TABS,ioos:station:wmo:42043:1,2019-09-11T15:00:00Z,28.9818,-94.9186,1019.42,11111222 
TABS,ioos:station:wmo:42043:1,2019-09-11T16:00:00Z,28.9818,-94.9186,1019.18,11111222 
TABS,ioos:station:wmo:42043:1,2019-09-11T17:00:00Z,28.9818,-94.9186,1018.92,11111222 
TABS,ioos:station:wmo:42043:1,2019-09-11T18:00:00Z,28.9818,-94.9186,1018.7,11111222 
TABS,ioos:station:wmo:42043:1,2019-09-11T19:00:00Z,28.9818,-94.9186,1018.33,11111222 
TABS,ioos:station:wmo:42043:1,2019-09-11T20:00:00Z,28.9818,-94.9186,1017.44,11111222 
TABS,ioos:station:wmo:42043:1,2019-09-11T21:00:00Z,28.9818,-94.9186,1016.94,11111222 
TABS,ioos:station:wmo:42043:1,2019-09-11T22:00:00Z,28.9818,-94.9186,1016.69,11111222 
TABS,ioos:station:wmo:42043:1,2019-09-11T23:00:00Z,28.9818,-94.9186,1016.92,11111222 
TABS,ioos:station:wmo:42043:1,2019-09-11T23:30:00Z,28.9818,-94.9186,1016.79,11111222 
TABS,ioos:station:wmo:42043:1,2019-09-12T04:00:00Z,28.9818,-94.9186,1017.24,11111222 
TABS,ioos:station:wmo:42043:1,2019-09-12T05:00:00Z,28.9818,-94.9186,1017.01,11111222 
TABS,ioos:station:wmo:42043:1,2019-09-12T06:00:00Z,28.9818,-94.9186,1016.49,11111222 
TABS,ioos:station:wmo:42043:1,2019-09-12T06:30:00Z,28.9818,-94.9186,1016.46,11111222 
TABS,ioos:station:wmo:42043:1,2019-09-12T08:00:00Z,28.9818,-94.9186,1015.67,11111222 
TABS,ioos:station:wmo:42043:1,2019-09-12T09:00:00Z,28.9818,-94.9186,1015.58,11111222 
TABS,ioos:station:wmo:42043:1,2019-09-12T10:00:00Z,28.9818,-94.9186,1015.59,11111222 
TABS,ioos:station:wmo:42043:1,2019-09-12T11:00:00Z,28.9818,-94.9186,1015.84,11111222 
TABS,ioos:station:wmo:42043:1,2019-09-12T12:00:00Z,28.9818,-94.9186,1016.49,11111222 
TABS,ioos:station:wmo:42043:1,2019-09-12T13:00:00Z,28.9818,-94.9186,1016.99,11111222 
TABS,ioos:station:wmo:42043:1,2019-09-12T14:00:00Z,28.9818,-94.9186,1017.55,11111222 
TABS,ioos:station:wmo:42043:1,2019-09-12T15:00:00Z,28.9818,-94.9186,1018.02,11111222 
TABS,ioos:station:wmo:42043:1,2019-09-13T19:00:00Z,28.9818,-94.9186,1018.44,11111222 
TABS,ioos:station:wmo:42043:1,2019-09-13T20:00:00Z,28.9818,-94.9186,1017.65,11111222 
TABS,ioos:station:wmo:42043:1,2019-09-13T21:00:00Z,28.9818,-94.9186,1017.09,11111222 
TABS,ioos:station:wmo:42043:1,2019-09-13T22:00:00Z,28.9818,-94.9186,1016.41,11111222 
TABS,ioos:station:wmo:42043:1,2019-09-13T23:00:00Z,28.9818,-94.9186,1016.46,11111222 
TABS,ioos:station:wmo:42043:1,2019-09-13T23:30:00Z,28.9818,-94.9186,1016.4,11111222 
TABS,ioos:station:wmo:42043:1,2019-09-14T04:00:00Z,28.9818,-94.9186,1017.75,11111222 
TABS,ioos:station:wmo:42043:1,2019-09-14T05:00:00Z,28.9818,-94.9186,1017.64,11111222 
TABS,ioos:station:wmo:42043:1,2019-09-14T06:00:00Z,28.9818,-94.9186,1017.5,11111222 
TABS,ioos:station:wmo:42043:1,2019-09-14T07:00:00Z,28.9818,-94.9186,1017.62,11111222 
TABS,ioos:station:wmo:42043:1,2019-09-14T08:00:00Z,28.9818,-94.9186,1017.14,11111222 
TABS,ioos:station:wmo:42043:1,2019-09-14T09:00:00Z,28.9818,-94.9186,1016.84,11111222 
TABS,ioos:station:wmo:42043:1,2019-09-14T10:00:00Z,28.9818,-94.9186,1016.81,11111222 
TABS,ioos:station:wmo:42043:1,2019-09-14T11:00:00Z,28.9818,-94.9186,1017.25,11111222 
TABS,ioos:station:wmo:42043:1,2019-09-14T12:00:00Z,28.9818,-94.9186,1017.46,11111222 
TABS,ioos:station:wmo:42043:1,2019-09-14T13:00:00Z,28.9818,-94.9186,1017.69,11111222 
TABS,ioos:station:wmo:42043:1,2019-09-14T14:00:00Z,28.9818,-94.9186,1018.13,11111222 
TABS,ioos:station:wmo:42043:1,2019-09-14T15:00:00Z,28.9818,-94.9186,1018.12,11111222 
TABS,ioos:station:wmo:42043:1,2019-09-14T16:00:00Z,28.9818,-94.9186,1017.79,11111222 
TABS,ioos:station:wmo:42043:1,2019-09-14T17:00:00Z,28.9818,-94.9186,1017.63,11111222 
TABS,ioos:station:wmo:42043:1,2019-09-14T18:00:00Z,28.9818,-94.9186,1017.09,11111222 
TABS,ioos:station:wmo:42043:1,2019-09-14T19:00:00Z,28.9818,-94.9186,1016.57,11111222 
TABS,ioos:station:wmo:42043:1,2019-09-14T20:00:00Z,28.9818,-94.9186,1015.99,11111222 
TABS,ioos:station:wmo:42043:1,2019-09-14T21:00:00Z,28.9818,-94.9186,1015.97,11111222 
TABS,ioos:station:wmo:42043:1,2019-09-14T22:00:00Z,28.9818,-94.9186,1015.57,11111222 
TABS,ioos:station:wmo:42043:1,2019-09-14T23:00:00Z,28.9818,-94.9186,1015.76,11111222 
TABS,ioos:station:wmo:42043:1,2019-09-14T23:30:00Z,28.9818,-94.9186,1015.96,11111222 
TABS,ioos:station:wmo:42043:1,2019-09-15T04:00:00Z,28.9818,-94.9186,1016.91,11111222 
TABS,ioos:station:wmo:42043:1,2019-09-15T05:00:00Z,28.9818,-94.9186,1017.02,11111222 
TABS,ioos:station:wmo:42043:1,2019-09-15T05:30:00Z,28.9818,-94.9186,1016.85,11111222 
TABS,ioos:station:wmo:42043:1,2019-09-15T07:00:00Z,28.9818,-94.9186,1016.28,11111222 
TABS,ioos:station:wmo:42043:1,2019-09-15T08:00:00Z,28.9818,-94.9186,1016.11,11111222 
TABS,ioos:station:wmo:42043:1,2019-09-15T09:00:00Z,28.9818,-94.9186,1015.3,11111222 
TABS,ioos:station:wmo:42043:1,2019-09-15T10:00:00Z,28.9818,-94.9186,1015.4,11111222 
TABS,ioos:station:wmo:42043:1,2019-09-15T11:00:00Z,28.9818,-94.9186,1015.55,11111222 
TABS,ioos:station:wmo:42043:1,2019-09-15T12:00:00Z,28.9818,-94.9186,1015.13,11111222 
TABS,ioos:station:wmo:42043:1,2019-09-15T13:00:00Z,28.9818,-94.9186,1015.19,11111222 
TABS,ioos:station:wmo:42043:1,2019-09-15T14:00:00Z,28.9818,-94.9186,1015.7,11111222 
TABS,ioos:station:wmo:42043:1,2019-09-15T15:00:00Z,28.9818,-94.9186,1016.14,11111222 
TABS,ioos:station:wmo:42043:1,2019-09-15T16:00:00Z,28.9818,-94.9186,1016.47,11111222 
TABS,ioos:station:wmo:42043:1,2019-09-15T17:00:00Z,28.9818,-94.9186,1015.86,11111222 
TABS,ioos:station:wmo:42043:1,2019-09-15T18:00:00Z,28.9818,-94.9186,1015.41,11111222 
TABS,ioos:station:wmo:42043:1,2019-09-15T19:00:00Z,28.9818,-94.9186,1015.23,11111222 
TABS,ioos:station:wmo:42043:1,2019-09-15T20:00:00Z,28.9818,-94.9186,1014.63,11111222 
TABS,ioos:station:wmo:42043:1,2019-09-15T21:00:00Z,28.9818,-94.9186,1014.06,11111222 
TABS,ioos:station:wmo:42043:1,2019-09-15T22:00:00Z,28.9818,-94.9186,1013.88,11111222 
TABS,ioos:station:wmo:42043:1,2019-09-15T23:00:00Z,28.9818,-94.9186,1014.22,11111222 
TABS,ioos:station:wmo:42043:1,2019-09-15T23:30:00Z,28.9818,-94.9186,1014.09,11111222 
TABS,ioos:station:wmo:42043:1,2019-09-16T04:00:00Z,28.9818,-94.9186,1014.69,11111222 
TABS,ioos:station:wmo:42043:1,2019-09-16T05:00:00Z,28.9818,-94.9186,1014.58,11111222 
TABS,ioos:station:wmo:42043:1,2019-09-16T06:00:00Z,28.9818,-94.9186,1014.6,11111222 
TABS,ioos:station:wmo:42043:1,2019-09-16T07:00:00Z,28.9818,-94.9186,1014.18,11111222 
TABS,ioos:station:wmo:42043:1,2019-09-16T07:30:00Z,28.9818,-94.9186,1014.03,11111222 
TABS,ioos:station:wmo:42043:1,2019-09-16T09:00:00Z,28.9818,-94.9186,1013.49,11111222 
TABS,ioos:station:wmo:42043:1,2019-09-16T10:00:00Z,28.9818,-94.9186,1013.01,11111222 
TABS,ioos:station:wmo:42043:1,2019-09-16T11:00:00Z,28.9818,-94.9186,1013.25,11111222 
TABS,ioos:station:wmo:42043:1,2019-09-16T12:30:00Z,28.9818,-94.9186,1013.52,11111222 
TABS,ioos:station:wmo:42043:1,2019-09-16T14:30:00Z,28.9818,-94.9186,1013.73,11111222 
TABS,ioos:station:wmo:42043:1,2019-09-16T15:30:00Z,28.9818,-94.9186,1014.19,11111222 
TABS,ioos:station:wmo:42043:1,2019-09-16T17:00:00Z,28.9818,-94.9186,1014.06,11111222 
TABS,ioos:station:wmo:42043:1,2019-09-16T18:00:00Z,28.9818,-94.9186,1013.11,11111222 
TABS,ioos:station:wmo:42043:1,2019-09-16T19:00:00Z,28.9818,-94.9186,1012.79,11111222 
TABS,ioos:station:wmo:42043:1,2019-09-16T20:00:00Z,28.9818,-94.9186,1012.25,11111222 
TABS,ioos:station:wmo:42043:1,2019-09-16T21:00:00Z,28.9818,-94.9186,1011.99,11111222 
TABS,ioos:station:wmo:42043:1,2019-09-16T22:00:00Z,28.9818,-94.9186,1011.84,11111222 
TABS,ioos:station:wmo:42043:1,2019-09-16T23:00:00Z,28.9818,-94.9186,1011.81,11111222 
TABS,ioos:station:wmo:42043:1,2019-09-16T23:30:00Z,28.9818,-94.9186,1011.51,11111222 
TABS,ioos:station:wmo:42043:1,2019-09-17T04:00:00Z,28.9818,-94.9186,1012.05,11111222 
TABS,ioos:station:wmo:42043:1,2019-09-17T05:00:00Z,28.9818,-94.9186,1011.84,11111222 
TABS,ioos:station:wmo:42043:1,2019-09-17T06:00:00Z,28.9818,-94.9186,1011.48,11111222 
TABS,ioos:station:wmo:42043:1,2019-09-17T07:00:00Z,28.9818,-94.9186,1011.23,11111222 
TABS,ioos:station:wmo:42043:1,2019-09-17T08:00:00Z,28.9818,-94.9186,1010.78,11111222 
TABS,ioos:station:wmo:42043:1,2019-09-17T09:00:00Z,28.9818,-94.9186,1010.6,11111222 
TABS,ioos:station:wmo:42043:1,2019-09-17T10:00:00Z,28.9818,-94.9186,1010.58,11111222 
TABS,ioos:station:wmo:42043:1,2019-09-17T11:00:00Z,28.9818,-94.9186,1011.09,11111222 
TABS,ioos:station:wmo:42043:1,2019-09-17T12:00:00Z,28.9818,-94.9186,1011.3,11111222 
TABS,ioos:station:wmo:42043:1,2019-09-17T13:00:00Z,28.9818,-94.9186,1011.62,11111222 
TABS,ioos:station:wmo:42043:1,2019-09-17T14:00:00Z,28.9818,-94.9186,1011.72,11111222 
TABS,ioos:station:wmo:42043:1,2019-09-17T15:00:00Z,28.9818,-94.9186,1011.81,11111222 
TABS,ioos:station:wmo:42043:1,2019-09-17T16:00:00Z,28.9818,-94.9186,1011.52,11111222 
TABS,ioos:station:wmo:42043:1,2019-09-17T17:00:00Z,28.9818,-94.9186,1010.94,11111222 
TABS,ioos:station:wmo:42043:1,2019-09-17T18:00:00Z,28.9818,-94.9186,1009.8,11111222 
TABS,ioos:station:wmo:42043:1,2019-09-17T19:00:00Z,28.9818,-94.9186,1009.97,11111222 
TABS,ioos:station:wmo:42043:1,2019-09-17T20:00:00Z,28.9818,-94.9186,1009.04,11111222 
TABS,ioos:station:wmo:42043:1,2019-09-17T21:00:00Z,28.9818,-94.9186,1009.4,11111222 
TABS,ioos:station:wmo:42043:1,2019-09-17T22:00:00Z,28.9818,-94.9186,1009.39,11111222 
TABS,ioos:station:wmo:42043:1,2019-09-17T23:00:00Z,28.9818,-94.9186,1009.77,11111222 
TABS,ioos:station:wmo:42043:1,2019-09-17T23:30:00Z,28.9818,-94.9186,1009.98,11111222 
TABS,ioos:station:wmo:42043:1,2019-09-18T04:00:00Z,28.9818,-94.9186,1010.96,11111222 
TABS,ioos:station:wmo:42043:1,2019-09-18T05:00:00Z,28.9818,-94.9186,1010.52,11111222 
TABS,ioos:station:wmo:42043:1,2019-09-18T06:00:00Z,28.9818,-94.9186,1010.41,11111222 
TABS,ioos:station:wmo:42043:1,2019-09-18T07:00:00Z,28.9818,-94.9186,1010.21,11111222 
TABS,ioos:station:wmo:42043:1,2019-09-18T08:00:00Z,28.9818,-94.9186,1010.29,11111222 
TABS,ioos:station:wmo:42043:1,2019-09-18T09:00:00Z,28.9818,-94.9186,1009.81,11111222 
TABS,ioos:station:wmo:42043:1,2019-09-18T10:00:00Z,28.9818,-94.9186,1008.84,11111222 
TABS,ioos:station:wmo:42043:1,2019-09-18T11:00:00Z,28.9818,-94.9186,1010.82,11111222 
TABS,ioos:station:wmo:42043:1,2019-09-18T12:00:00Z,28.9818,-94.9186,1011.9,11111222 
TABS,ioos:station:wmo:42043:1,2019-09-18T13:00:00Z,28.9818,-94.9186,1012.39,11111222 
TABS,ioos:station:wmo:42043:1,2019-09-18T14:00:00Z,28.9818,-94.9186,1013.01,11111222 
TABS,ioos:station:wmo:42043:1,2019-09-18T15:00:00Z,28.9818,-94.9186,1012.94,11111222 
TABS,ioos:station:wmo:42043:1,2019-09-18T16:00:00Z,28.9818,-94.9186,1012.92,11111222 